Tracking 25612 objects as of 21-May-2022
HD Live streaming from Space Station
objects crossing your sky now

CRRES DEB (CANISTER)

Track CRRES DEB (CANISTER) now!


NORAD ID: 20811
Int'l Code: 1990-065C
Perigee: 355.2 km
Apogee: 30,994.5 km
Inclination: 17.6 °
Period: 542.9 minutes
Semi major axis: 22045 km
RCS: 0.1323 m2 (medium)
Launch date: July 25, 1990
Source: United States (US)
Launch site: AIR FORCE EASTERN TEST RANGE (AFETR)

Note: This is SATELLITE DEBRIS
aabbcc
Your satellite tracking list
Your tracking list is empty




NASA's NSSDC Master Catalog

Two Line Element Set (TLE):
1 20811U 90065C   22140.51325095  .00000427  00000-0  65687-3 0  9999
2 20811  17.5836 228.7381 6948977 122.4977 323.1637  2.65223854282450
Source of the keplerian elements: AFSPC